Location: �quirre
(50.4736°N, 2.2351°E)
Time: 20:11:13
(UTC+00:00)

Uosat 12 SS-18 rocket - Pass Details

Date: 07 August 2020
Orbit: 602 x 1382 km, 64.6° (Epoch: 22 September)

Event Time Altitude Azimuth Distance (km) Brightness Sun altitude
Exits shadow 02:33:30 22° 241° (WSW) 1,526 5.5 -14.9°
Maximum altitude 02:36:34 60° 315° (NW) 760 4.5 -14.6°
Drops below altitude 10° 02:40:56 10° 36° (NE) 1,989 8.1 -14.1°
Sets 02:43:08 0° 40° (NE) 2,872 9.5 -13.9°
